Wind_Speed
18 18 18 18 18 17 18 19 20 20 19 17 18 20 22 22 22 21 19 18 16 15 15 14 15 16 16 16 13 11 11 10 9 10 13 14 13 12 9 9 10 11 10 9 10 12 13 13 13 13 13 13 13 12 12 12 12 13 14 14 15 16 16 16 16 15 15 16 17 17 16 15 15 15 15 15 15 15 15 14 14 13 13 12 12
19 19 18 19 19 19 19 19 20 21 21 19 19 21 22 23 22 21 20 19 18 17 16 16 16 16 16 16 13 13 13 10 10 13 14 14 13 12 10 9 10 11 11 10 9 11 13 14 14 14 13 13 13 13 12 11 12 13 13 14 15 16 16 16 16 15 15 15 17 18 18 16 15 16 16 15 15 15 15 15 14 14 14 14 13
19 20 19 20 20 19 19 20 20 21 22 22 21 22 23 23 22 21 21 20 19 18 18 18 17 16 17 16 15 15 14 12 13 13 13 14 14 13 11 11 10 11 12 11 9 10 12 14 15 14 14 13 13 13 12 11 12 13 13 14 15 16 16 16 16 16 15 14 16 19 19 17 16 16 16 15 15 15 15 14 14 14 14 14 14
20 20 20 21 20 20 20 20 20 21 22 22 22 22 23 22 21 20 20 19 18 18 19 20 18 18 18 17 16 16 15 14 14 13 13 15 16 14 13 12 11 12 13 12 10 10 11 13 15 15 15 14 14 14 13 12 13 13 14 14 15 15 16 16 16 16 16 14 15 19 19 17 16 15 15 15 14 14 14 14 14 14 14 14 14
21 21 21 22 21 21 21 21 20 20 20 21 21 21 21 21 20 20 20 19 18 18 19 19 19 19 18 18 17 16 16 15 13 14 14 15 16 15 14 13 12 12 14 14 12 11 11 13 14 15 16 15 15 14 13 13 13 13 14 14 14 15 16 15 15 16 16 14 15 18 19 17 16 15 15 14 14 14 14 14 14 13 13 13 13
21 21 21 21 20 20 20 20 20 20 20 20 20 20 19 19 19 20 20 19 18 19 18 17 17 18 18 18 18 17 17 16 15 16 16 17 17 16 14 12 11 12 15 15 14 12 12 13 14 15 16 16 16 15 14 14 13 13 14 14 14 15 16 16 15 15 16 15 15 17 19 17 16 15 15 15 14 14 14 14 14 13 13 13 13
18 18 19 20 19 19 19 18 18 19 19 19 18 19 19 19 18 18 18 18 18 17 17 17 15 16 17 18 19 19 18 17 15 15 15 14 15 16 16 14 12 12 14 17 16 14 13 13 14 15 16 17 16 16 15 15 14 14 14 14 14 16 16 16 16 16 16 17 16 17 18 17 16 15 15 14 14 14 14 15 14 14 14 13 13
15 16 17 18 19 19 18 17 17 17 17 17 17 17 18 19 17 15 17 17 17 16 16 18 17 17 17 17 18 18 17 18 17 16 15 12 14 18 18 16 16 14 14 16 17 16 15 14 14 15 16 17 17 16 16 16 16 15 15 14 15 16 16 16 16 16 16 17 18 18 18 16 15 15 15 14 14 14 14 16 16 16 15 13 13
15 16 16 15 16 16 15 15 16 16 15 16 17 17 16 16 15 16 18 18 18 17 16 19 19 17 17 17 17 17 18 20 20 19 17 16 16 17 17 18 18 17 15 16 17 17 17 15 15 14 15 16 17 17 17 17 17 16 16 15 15 16 17 16 16 15 15 17 19 18 18 16 15 15 15 14 13 12 13 15 17 18 16 14 14
13 13 14 13 12 13 12 13 14 15 15 15 16 16 16 15 15 16 17 19 19 18 18 20 20 17 18 18 16 17 19 20 19 18 18 19 18 16 17 19 19 19 17 17 16 17 18 18 16 15 15 15 16 17 18 18 18 18 17 16 15 16 18 17 16 15 14 16 18 18 18 16 15 15 14 14 13 11 11 12 15 17 16 15 14
8 9 11 11 10 11 11 12 13 14 15 15 15 16 16 16 16 15 16 18 20 19 19 20 21 18 19 18 16 17 20 21 18 18 20 21 19 18 20 20 19 19 18 18 17 16 17 18 18 18 17 16 16 17 18 18 19 19 18 17 16 16 18 18 17 15 14 14 17 18 17 16 16 15 15 14 13 12 11 10 13 14 14 14 14
6 7 9 9 10 10 11 12 12 14 15 15 15 15 15 16 16 15 15 17 19 20 19 19 20 19 19 18 17 17 18 20 19 19 21 22 21 22 22 20 19 20 19 18 18 16 16 17 18 19 18 17 17 16 18 18 19 19 19 18 18 17 18 19 18 17 16 15 16 16 16 16 16 15 15 15 14 13 12 10 11 13 13 14 14
7 9 9 10 10 11 12 13 12 14 14 14 14 14 14 14 14 15 14 15 17 19 19 18 18 19 19 17 17 18 17 17 18 20 20 21 21 22 24 22 19 20 20 20 20 19 18 17 17 19 19 19 18 17 18 19 19 19 19 19 19 19 19 20 20 19 18 17 17 17 17 17 16 16 16 16 14 14 13 12 11 12 12 12 12
9 10 10 10 12 12 12 13 13 13 13 13 13 12 12 12 13 14 14 15 16 17 18 16 16 18 17 15 15 17 18 18 19 20 20 19 19 19 22 22 19 21 21 20 21 21 20 20 17 18 19 20 20 19 19 19 20 20 19 19 20 20 20 20 21 21 20 19 18 18 18 18 17 17 17 16 16 15 14 14 13 13 13 13 12
10 11 11 11 12 13 13 13 12 12 12 11 11 10 11 11 12 13 14 14 15 16 16 15 17 17 15 14 13 13 15 17 20 21 19 19 21 20 21 21 20 21 21 20 21 21 21 21 20 18 19 20 21 21 20 20 20 20 20 19 19 20 20 21 22 22 21 20 20 19 19 19 18 18 17 17 17 16 15 15 15 15 14 14 13
9 10 11 10 11 13 14 12 10 11 11 11 11 10 10 11 12 13 13 14 16 16 14 14 16 16 14 13 11 11 11 13 17 20 20 22 25 24 21 21 21 21 21 21 21 22 22 22 22 21 20 21 21 22 22 21 19 20 20 20 19 19 19 20 21 22 22 21 21 20 20 19 18 18 17 17 17 17 16 15 15 15 15 15 14
10 10 10 10 11 11 13 11 8 9 10 11 11 10 9 11 13 13 13 14 16 16 15 14 15 16 16 12 9 10 11 11 12 14 17 21 24 24 22 21 21 22 23 22 21 22 23 22 22 23 21 21 21 22 23 22 20 20 21 22 21 19 19 19 20 21 21 21 20 19 19 18 17 16 16 16 16 16 15 15 14 15 15 15 14
12 12 10 11 10 10 10 9 8 8 9 12 12 10 9 10 12 13 13 14 15 15 15 15 16 17 18 18 15 12 11 10 8 8 11 16 19 22 23 23 22 23 23 23 22 22 22 22 22 23 22 21 22 22 22 23 23 21 21 23 23 22 21 20 20 21 20 20 20 19 19 18 17 16 14 14 14 14 14 14 14 14 14 14 14
12 12 11 11 9 9 9 10 10 9 10 11 13 12 11 10 11 12 12 13 15 15 14 15 17 17 16 19 19 18 16 13 10 9 9 11 15 19 23 23 23 23 23 24 23 23 22 23 22 22 23 23 24 24 23 23 24 23 22 22 23 24 24 23 22 22 22 21 21 20 19 19 18 16 15 14 15 15 15 15 14 14 14 14 14
13 13 12 12 10 10 11 12 10 10 11 12 12 12 11 11 11 11 12 12 14 15 15 14 16 16 14 17 19 20 20 17 16 14 12 13 13 15 20 23 24 24 24 24 24 24 23 23 23 22 23 25 25 25 24 24 24 24 24 23 23 24 25 26 26 25 24 23 23 22 21 20 19 18 17 16 16 16 16 16 16 16 15 15 14
12 12 12 12 11 11 13 13 12 11 11 12 12 12 12 12 12 12 13 13 13 14 15 15 16 15 14 15 17 20 20 18 18 18 16 16 16 14 16 19 23 25 25 24 24 24 24 24 24 23 23 25 27 26 25 25 25 25 25 24 23 24 25 26 27 27 27 26 25 24 23 22 21 21 20 19 18 18 18 18 18 18 18 17 16
10 10 11 12 12 12 12 13 13 13 13 14 13 13 14 14 13 13 14 15 15 15 17 17 17 16 15 16 17 18 19 20 20 19 18 18 19 17 15 16 21 25 25 25 24 24 24 24 25 24 24 25 27 27 25 25 26 26 26 24 23 24 24 24 26 27 28 28 27 27 26 25 24 23 23 21 20 19 19 19 19 19 20 20 19
11 10 10 11 13 13 12 12 13 14 15 15 15 14 14 14 14 14 14 15 16 17 18 19 19 18 18 17 16 15 17 21 22 20 20 20 20 20 19 18 20 23 24 25 25 24 24 25 25 24 24 25 26 27 27 26 27 27 27 26 23 23 25 24 24 25 26 27 27 27 27 27 26 26 25 24 23 21 21 20 20 20 20 21 21
12 12 11 11 12 12 11 11 12 14 14 15 15 15 15 16 15 14 14 15 15 16 17 18 19 19 19 18 18 17 17 19 21 21 22 22 20 20 22 21 19 20 22 23 25 25 25 25 25 25 25 26 26 27 27 27 27 27 27 28 25 22 24 25 24 24 25 25 25 25 26 26 26 26 26 25 24 23 22 22 21 21 21 21 21
14 14 13 12 12 11 11 11 12 13 14 14 14 15 16 16 16 15 15 16 15 15 16 16 18 18 19 19 19 19 18 17 18 21 22 22 20 20 23 21 19 20 20 22 24 25 26 26 26 26 26 26 26 27 28 27 27 27 27 28 27 23 22 24 25 25 24 24 24 24 24 24 24 25 25 25 24 24 23 23 22 22 22 22 22
16 15 15 14 13 13 13 13 13 14 15 14 14 14 15 15 15 15 16 16 15 15 15 16 17 18 18 19 19 20 19 17 18 22 23 21 20 20 20 20 21 20 19 21 22 23 25 27 27 26 26 26 26 26 28 28 27 27 27 27 28 26 23 23 25 26 25 24 24 24 23 23 23 23 23 23 24 24 24 24 23 23 23 23 23
15 16 15 15 15 14 14 14 15 16 16 17 15 14 15 15 15 15 16 16 15 15 16 16 17 17 18 18 18 18 18 17 19 22 23 22 22 20 17 18 22 20 18 19 21 23 24 24 25 27 26 27 27 27 28 29 27 27 27 27 28 27 25 23 25 26 26 25 25 25 24 24 23 23 23 24 24 24 24 24 24 24 24 24 24
17 16 15 15 15 16 15 14 15 17 17 18 17 16 16 16 16 16 16 15 14 14 15 16 16 17 18 18 18 19 18 17 19 22 21 21 23 22 18 17 20 21 20 19 19 21 23 23 23 25 26 26 26 27 27 28 28 27 27 27 27 27 24 23 24 26 27 26 26 26 26 25 25 25 25 25 25 25 25 25 25 25 25 25 25
18 17 17 16 15 15 16 15 16 18 19 18 17 17 17 16 17 17 17 15 15 15 15 15 15 16 17 18 19 19 19 18 20 21 19 19 21 23 21 19 19 21 21 21 20 19 20 22 23 23 25 26 26 26 27 28 27 27 28 27 27 27 26 23 24 25 27 27 26 26 26 26 26 26 26 26 27 26 26 26 26 26 26 26 26
18 17 18 18 17 16 16 15 16 17 19 19 18 18 18 17 17 18 18 17 16 17 16 15 14 14 16 17 18 19 20 19 20 21 19 19 21 23 24 23 22 22 21 22 23 20 17 20 22 20 21 25 26 24 25 27 27 27 28 28 27 28 27 25 24 25 26 27 27 26 26 26 25 26 26 26 27 27 26 26 26 27 27 27 27
19 18 19 19 18 18 17 17 16 15 16 18 18 18 19 19 18 17 17 18 18 19 18 16 15 15 16 17 17 19 18 19 21 22 20 20 22 25 26 26 25 24 22 22 26 25 20 20 22 20 19 23 26 24 24 26 27 28 28 27 27 27 29 28 26 25 25 26 27 27 26 26 25 26 26 26 26 26 26 26 26 26 26 27 27
19 19 20 18 18 18 18 19 18 17 17 16 17 18 19 20 19 19 19 18 18 19 19 18 17 16 16 17 17 18 18 19 21 22 20 19 21 24 26 25 24 24 23 23 26 28 25 21 22 22 20 20 22 22 24 27 28 29 27 26 28 28 29 30 27 25 25 24 25 27 26 26 26 26 26 26 26 26 26 26 25 25 26 26 27
19 19 19 18 18 18 19 20 20 19 18 16 15 17 19 20 20 20 20 19 19 19 19 20 19 18 18 17 16 17 19 20 20 21 22 21 21 24 25 24 23 24 25 25 26 29 28 23 22 23 21 20 21 20 22 27 29 28 25 24 27 29 28 28 27 26 25 25 25 25 26 26 27 27 26 26 26 26 26 26 26 26 26 26 26
19 19 19 20 20 20 20 21 20 19 19 17 16 16 17 19 19 20 20 20 20 19 20 20 19 18 18 18 16 15 17 19 19 21 23 21 21 24 25 25 24 25 27 28 28 29 29 26 24 25 23 19 19 18 20 24 25 25 24 23 25 28 29 28 28 27 26 27 28 27 25 26 27 27 27 27 27 27 27 27 27 26 26 26 26
18 19 20 21 20 20 21 20 20 19 20 20 19 18 17 17 18 20 21 20 20 19 19 18 18 18 18 19 19 17 16 18 19 21 22 21 21 22 23 23 24 26 26 27 27 27 27 25 23 24 23 20 19 19 18 20 21 21 22 24 26 27 25 25 27 28 26 25 26 27 27 27 27 27 28 28 27 27 27 27 27 27 26 26 25
20 20 21 21 21 21 20 20 20 19 20 21 21 20 19 17 17 18 20 20 18 18 18 16 16 18 19 20 20 18 16 17 19 20 21 21 20 21 22 22 22 25 26 25 24 23 22 24 25 24 22 21 20 20 19 20 22 22 20 22 25 25 22 21 22 24 24 22 22 25 26 26 26 27 28 29 28 27 27 27 27 28 27 26 26
23 23 22 22 22 22 21 20 20 20 20 20 20 21 20 19 17 17 19 18 17 18 18 17 17 18 18 19 19 19 17 18 19 20 18 18 19 20 22 21 20 22 24 24 23 23 22 23 25 25 24 22 19 18 18 18 20 22 20 20 21 21 21 22 21 21 21 20 20 22 23 23 24 26 28 30 30 30 29 29 28 28 28 27 27
24 24 23 22 22 22 21 21 20 20 21 21 21 20 20 19 17 16 17 17 18 19 20 19 20 20 19 19 18 18 18 18 19 18 16 17 18 20 21 21 19 19 21 22 23 24 26 27 28 27 27 26 23 19 18 16 17 20 21 21 22 21 20 20 20 20 19 19 20 22 22 23 24 26 28 30 31 31 31 31 31 31 30 30 29
24 24 24 24 22 21 22 23 22 21 22 22 21 20 20 19 18 17 17 19 21 21 22 21 21 20 20 20 20 19 18 18 19 19 18 18 18 19 20 20 20 20 22 24 23 24 27 30 32 32 29 27 25 23 21 19 19 21 23 25 26 24 22 19 17 18 19 19 22 25 25 25 25 26 27 28 29 29 29 31 32 33 33 32 31
23 23 23 24 23 22 22 22 22 22 22 21 20 21 21 21 20 20 21 22 23 22 23 22 21 20 20 20 21 20 19 18 19 19 20 18 18 19 18 19 21 22 22 23 25 26 26 26 28 30 29 27 27 27 25 23 24 25 25 26 27 25 24 23 21 21 23 24 25 27 29 28 26 26 28 28 29 29 29 30 31 33 34 34 33
22 22 22 23 23 23 23 22 22 22 21 21 21 22 23 23 23 22 21 22 23 22 22 22 21 21 20 20 20 21 21 20 19 19 18 18 19 19 18 18 19 21 22 22 24 26 27 27 27 27 26 27 29 31 30 28 28 27 26 26 27 25 24 25 26 26 26 27 28 30 32 32 30 30 30 31 31 30 30 30 31 33 34 34 34
21 21 21 22 22 22 23 22 22 22 21 20 20 20 22 24 24 22 21 22 23 23 22 22 21 20 20 20 20 21 22 21 20 19 18 18 18 19 19 19 18 20 22 24 25 26 27 29 29 28 28 28 28 30 33 33 30 27 25 25 25 26 26 27 27 27 26 27 28 31 33 34 33 33 33 32 31 30 30 30 31 33 34 34 33
21 21 21 21 21 20 21 22 22 21 21 21 20 20 21 22 23 22 23 24 24 23 22 21 21 20 20 20 20 21 23 22 22 22 20 17 17 18 19 19 19 20 21 24 26 27 28 28 27 27 28 30 30 30 31 33 32 30 28 25 23 23 25 26 26 27 26 26 27 30 33 33 33 33 35 34 31 29 29 29 28 29 31 32 33
20 20 20 20 20 20 21 21 21 20 20 21 21 22 23 23 24 24 24 23 24 23 21 20 20 20 20 20 20 21 21 21 22 23 22 18 17 18 19 19 19 19 21 22 24 26 27 27 26 26 26 28 30 30 30 30 31 32 30 27 24 23 24 26 27 28 26 24 25 29 32 33 33 33 35 35 34 32 32 31 29 27 28 30 31
20 20 19 19 20 20 20 21 21 20 21 22 22 22 23 25 25 25 24 22 21 20 19 19 19 19 19 20 20 20 20 20 22 23 23 21 19 19 19 19 19 19 20 21 23 25 25 26 27 27 25 25 27 28 28 27 27 27 26 24 24 24 24 25 28 28 26 24 26 28 31 33 33 34 35 36 35 35 34 33 31 29 28 28 29
20 19 19 18 18 19 20 21 21 21 21 23 22 22 23 24 24 23 22 20 18 17 16 16 17 18 18 20 21 21 21 22 23 22 21 21 20 20 19 19 19 20 21 21 22 23 23 24 26 27 25 26 26 26 27 26 25 25 25 25 25 25 25 27 29 29 27 26 27 30 32 33 33 34 36 36 36 36 35 34 32 32 32 31 31
19 19 19 18 18 19 19 19 19 20 20 21 21 21 21 22 21 20 19 17 17 16 15 15 15 16 17 19 20 21 22 23 24 22 19 17 17 18 19 18 19 19 20 20 21 21 19 20 23 25 26 26 26 26 26 27 26 27 26 26 26 25 26 28 30 30 28 28 28 31 35 35 33 34 36 36 35 35 36 35 34 34 34 34 34
19 19 19 18 19 20 20 19 18 18 18 17 17 18 18 18 18 18 16 16 15 15 15 15 16 16 17 18 19 20 21 22 23 21 19 17 16 17 17 17 18 18 18 19 20 19 18 20 22 24 25 25 25 24 24 23 25 27 27 27 27 27 27 29 31 30 30 30 30 31 35 37 34 35 37 36 34 34 36 36 37 38 37 37 37
19 19 18 18 18 19 19 18 18 17 17 16 15 16 17 17 18 19 19 19 18 18 18 17 18 18 18 18 19 20 20 19 19 19 18 17 17 18 18 17 17 18 18 17 17 16 16 19 21 21 22 23 23 23 21 21 21 23 26 29 29 28 29 31 32 33 33 33 32 31 34 36 35 35 37 36 34 35 36 37 38 38 39 40 39
19 18 19 18 18 18 17 17 16 17 20 21 19 18 17 17 19 21 22 23 23 23 23 22 21 21 20 18 19 19 19 18 18 17 16 17 18 17 17 16 17 18 18 17 17 16 16 18 19 20 21 21 22 23 24 24 23 22 25 28 28 27 29 32 33 33 33 33 31 29 31 35 35 34 35 35 34 35 36 38 39 38 39 40 41
18 18 19 18 17 17 17 17 18 19 22 24 23 21 20 20 21 22 23 24 25 27 27 26 25 24 22 21 20 21 21 21 21 19 17 18 20 17 14 16 17 18 18 18 17 17 18 19 20 21 21 21 22 23 24 24 24 24 25 27 27 28 30 32 33 33 33 33 32 30 31 35 36 34 33 33 33 33 32 33 34 36 36 37 39
Wind_Direction
264 265 266 267 268 268 266 264 262 261 260 262 266 270 272 271 268 267 264 257 250 253 254 250 246 243 242 245 253 264 260 247 243 249 246 239 234 229 217 222 237 239 232 220 214 213 215 216 212 209 210 211 209 211 213 213 213 211 210 210 211 212 208 207 210 212 215 216 216 215 214 215 215 214 215 216 218 218 219 221 223 222 222 225 227
263 264 266 266 265 267 265 263 262 263 264 264 265 267 268 268 267 265 264 258 253 255 254 252 251 246 244 246 247 251 259 263 247 239 244 245 234 227 221 218 232 242 236 226 216 213 215 217 216 209 209 212 211 213 213 213 215 212 210 209 210 211 210 209 211 212 215 218 219 217 215 215 216 216 215 217 218 218 219 222 224 224 224 226 227
267 267 269 268 266 267 268 266 265 265 266 268 270 269 266 267 267 266 264 260 257 255 252 252 250 245 244 245 243 241 247 252 245 237 238 245 242 233 227 219 227 242 239 230 220 215 214 217 219 212 210 213 213 214 212 211 214 213 210 209 209 210 211 210 212 215 216 219 219 217 214 214 216 216 215 216 218 218 219 221 223 224 223 226 225
271 271 272 273 272 273 273 272 269 264 266 272 275 272 268 268 267 266 264 258 255 253 252 253 251 246 243 244 245 241 238 236 242 243 226 235 246 240 235 229 228 237 237 230 224 219 213 216 221 218 214 214 216 215 212 210 209 211 211 210 211 210 211 211 213 216 216 218 217 213 212 213 216 214 214 216 217 217 217 219 221 222 223 225 223
274 274 275 276 277 277 275 274 271 266 268 271 272 272 270 269 267 264 262 257 253 252 252 253 251 249 244 243 244 240 239 234 237 242 221 221 239 243 239 232 229 233 232 228 225 222 215 215 220 222 219 216 217 216 213 212 210 211 210 209 212 210 210 211 214 216 216 216 213 210 210 212 213 212 214 215 216 217 216 217 219 221 223 223 221
276 275 275 276 277 277 275 273 273 271 269 267 269 272 271 269 264 261 264 262 257 254 252 252 251 251 247 243 240 235 239 234 230 240 227 212 223 240 244 230 227 233 229 226 222 222 221 216 218 221 223 219 218 217 213 213 214 214 211 210 211 210 210 212 214 216 216 216 213 209 209 209 210 211 214 215 216 218 218 219 219 220 222 221 221
275 273 274 276 276 275 273 275 275 273 272 270 271 274 273 271 265 264 268 265 259 256 254 252 251 251 249 246 242 235 237 235 229 236 230 215 215 230 244 237 235 238 229 225 221 220 221 219 219 218 222 223 220 219 213 212 214 214 213 212 211 209 209 210 213 217 216 216 214 209 207 207 209 211 215 216 218 221 222 222 221 221 222 221 221
274 273 273 275 276 273 272 276 276 273 273 272 274 277 276 274 269 267 267 262 257 257 257 255 251 249 247 249 248 237 233 234 228 228 229 228 222 227 240 238 239 246 236 230 224 220 221 220 221 219 219 222 222 221 217 213 213 213 213 212 211 209 208 209 212 217 218 217 214 208 205 206 210 214 215 217 219 223 227 226 224 222 222 222 222
273 271 269 271 276 276 275 275 272 270 270 272 276 278 274 272 270 266 265 261 255 255 259 258 254 253 251 251 251 242 238 236 229 228 228 226 224 225 230 230 239 249 242 236 229 221 220 219 221 221 219 219 221 223 222 218 214 214 214 213 212 209 208 208 211 216 219 217 212 205 204 206 211 215 214 215 219 225 235 232 224 221 221 222 224
270 270 270 273 278 281 281 278 275 272 271 273 276 275 273 273 272 269 266 263 259 259 259 258 258 258 255 252 249 243 241 243 236 233 231 224 225 226 222 226 238 245 241 237 232 225 223 220 218 220 219 219 219 220 223 222 217 215 216 215 215 211 207 208 210 213 215 212 205 201 203 208 211 212 210 213 218 226 239 232 217 215 218 220 223
274 284 285 287 286 284 283 283 281 276 273 274 273 273 274 275 275 271 267 265 264 264 257 255 257 255 252 250 250 244 239 242 238 234 235 225 225 231 223 223 229 234 237 238 239 234 226 221 219 220 220 219 219 218 220 221 220 217 217 217 216 213 208 208 209 208 209 207 201 202 206 207 208 209 211 216 219 223 234 228 210 208 214 219 223
293 306 303 304 300 294 291 289 286 280 277 276 274 275 274 274 274 272 271 270 265 261 255 252 253 253 252 246 246 245 240 241 234 233 240 228 225 230 223 220 223 225 229 234 242 241 230 226 225 224 222 221 221 220 218 218 220 220 220 219 217 214 210 209 209 208 207 206 204 206 208 208 210 212 215 219 220 221 226 224 212 210 215 221 224
319 315 311 314 311 305 299 295 291 287 286 284 281 280 274 270 270 270 271 272 266 260 256 254 255 256 254 246 244 242 236 237 230 231 239 232 230 232 225 224 224 222 222 225 234 240 241 238 231 228 226 224 222 222 221 218 217 219 221 221 218 216 213 209 210 210 210 209 209 210 212 213 215 217 219 221 222 222 222 221 217 215 216 218 220
329 323 320 322 319 314 309 304 297 292 292 288 284 280 273 268 266 267 268 271 272 266 258 254 257 258 253 250 250 243 234 233 233 231 231 232 235 233 228 228 224 224 225 220 224 233 242 242 237 235 230 226 223 221 223 221 217 216 217 220 220 219 216 211 210 212 212 211 212 214 216 217 219 221 222 223 224 223 222 222 219 218 218 218 220
342 336 329 328 321 311 310 313 307 300 297 293 290 284 278 275 269 266 266 267 270 267 262 257 257 257 253 252 253 248 240 238 239 234 227 229 232 226 226 229 224 225 226 221 220 224 234 242 243 242 237 232 226 221 224 225 221 217 216 217 218 219 217 213 212 213 213 212 213 215 216 217 218 220 221 221 223 223 223 224 222 221 223 223 224
349 343 336 333 325 310 305 311 309 304 303 301 297 291 286 284 275 272 272 267 263 262 265 264 259 255 250 249 248 247 247 247 246 242 235 234 231 225 224 227 223 223 223 221 220 219 225 238 245 245 243 239 232 225 224 227 226 221 218 217 216 216 216 214 212 213 213 212 212 213 212 212 213 214 215 216 218 219 222 224 223 222 223 226 227
351 347 343 340 334 317 305 308 307 303 305 304 303 298 294 290 281 277 276 269 261 259 263 266 263 258 252 248 245 244 246 248 250 249 242 238 235 229 225 226 224 222 221 221 221 220 221 229 240 245 246 243 238 231 225 224 225 223 219 217 215 213 212 212 211 210 210 209 207 206 205 206 207 208 209 211 215 217 220 222 222 222 222 225 227
357 351 347 343 332 303 298 317 325 319 313 310 310 308 302 296 285 279 273 268 263 261 267 273 271 266 260 255 251 250 252 249 250 258 245 235 236 233 228 226 224 223 222 221 220 221 222 222 229 240 245 244 242 239 233 226 224 224 222 218 216 214 211 210 210 209 208 206 205 204 203 204 205 207 209 211 215 217 219 221 221 221 222 224 226
360 356 354 353 336 300 309 336 341 337 332 322 319 315 310 302 288 281 274 269 268 268 273 278 275 269 265 264 261 259 258 255 256 270 265 248 240 235 232 228 224 224 222 220 219 219 223 221 221 229 235 238 241 242 240 234 229 226 225 223 219 217 215 213 212 212 211 210 209 209 208 209 210 212 214 215 217 219 220 221 221 221 222 224 226
359 358 356 355 341 325 336 346 345 342 337 330 325 320 314 302 288 283 277 271 273 275 277 278 276 275 273 274 273 267 263 259 260 265 268 268 258 239 234 229 224 224 223 221 219 218 221 221 219 221 227 232 238 240 240 237 235 231 228 225 222 221 219 218 217 216 216 217 216 217 217 217 218 220 222 224 225 225 226 225 223 222 222 224 227
355 351 349 349 343 341 344 345 345 341 333 328 326 320 312 304 294 288 283 279 278 279 278 275 273 276 278 276 273 269 266 261 259 259 259 267 267 252 241 234 226 224 224 222 221 221 222 223 222 221 224 230 235 240 240 237 234 235 233 228 223 224 223 222 223 221 221 223 223 224 225 226 227 228 231 234 235 234 233 231 229 226 225 227 230
353 347 345 346 346 346 343 340 338 333 329 327 327 320 310 305 301 295 292 291 287 282 282 279 275 275 276 273 268 266 267 264 258 255 254 259 263 259 252 243 232 226 223 222 222 223 223 223 225 223 222 228 234 238 240 237 232 233 237 236 226 224 226 226 226 226 225 226 228 229 230 231 232 234 236 238 239 239 238 236 235 233 230 231 233
351 347 347 347 344 345 343 338 331 327 327 325 324 321 312 307 303 299 298 296 291 286 284 281 277 273 271 270 268 267 268 267 262 254 251 252 257 262 262 256 245 232 224 223 223 224 224 222 224 225 222 224 230 235 237 237 234 229 234 241 236 226 225 227 227 228 229 228 230 232 233 234 235 236 237 239 240 239 239 239 238 237 235 233 234
351 346 347 346 341 340 339 332 326 324 323 323 322 319 315 311 309 307 305 299 291 286 283 281 276 271 268 267 268 270 268 265 261 255 253 250 249 261 265 263 260 246 230 226 225 224 225 224 223 225 225 223 225 232 237 237 236 231 229 238 243 232 225 227 229 230 230 230 231 232 234 235 236 237 238 239 240 239 238 238 238 237 235 233 234
347 345 345 345 340 337 333 327 325 321 317 319 321 317 313 312 312 311 308 304 298 290 286 284 280 273 269 268 270 274 271 266 262 255 253 252 248 256 263 263 268 263 243 230 227 225 225 225 224 225 227 225 223 228 234 236 237 236 231 233 241 239 228 226 229 232 233 232 232 232 233 234 234 235 236 236 237 237 237 236 236 235 232 232 233
343 342 340 340 339 335 332 329 324 317 313 315 317 315 313 313 314 313 310 307 302 297 293 287 282 276 271 272 273 274 273 274 274 263 256 253 251 255 263 265 269 269 256 240 231 226 225 225 225 225 226 228 226 225 230 234 235 237 235 233 238 241 236 228 227 231 235 235 234 233 233 233 233 233 233 233 233 234 234 235 235 235 234 234 235
345 343 339 337 334 332 331 330 323 318 319 320 318 315 315 316 316 313 311 309 303 299 298 291 283 277 274 275 275 274 274 275 274 268 259 255 252 251 258 267 268 267 265 254 238 229 228 226 226 226 226 228 229 226 229 234 233 234 236 236 238 242 241 234 228 229 234 236 237 236 234 233 232 231 231 231 232 233 234 235 237 238 239 240 240
346 344 342 339 338 336 334 332 328 324 326 328 325 320 317 317 317 313 310 306 303 303 301 293 286 281 278 278 277 275 274 273 270 266 260 253 251 251 250 257 263 266 270 268 253 239 233 230 228 228 227 227 229 228 229 233 231 231 235 238 241 243 242 238 231 229 233 235 236 237 236 234 234 234 234 234 235 236 237 238 240 242 243 244 244
343 342 340 342 343 339 335 337 338 334 332 332 331 326 321 319 318 314 312 307 302 303 302 296 291 286 280 278 280 280 277 277 275 269 263 256 253 253 250 250 257 264 269 269 262 250 241 236 232 232 230 227 229 229 228 231 231 231 235 238 240 242 244 243 237 232 233 235 236 237 237 237 237 236 237 238 238 239 241 241 242 243 245 246 246
340 340 337 340 341 339 338 338 341 339 333 331 331 330 326 323 320 314 312 309 303 303 302 298 297 294 287 282 284 283 279 277 276 272 268 266 263 257 253 255 259 259 259 263 262 252 247 244 236 236 236 226 223 225 227 232 234 232 234 238 239 240 243 247 244 238 235 236 237 237 238 239 239 240 240 240 240 241 242 242 243 244 244 246 247
338 336 335 339 340 340 338 334 335 337 331 329 330 330 327 324 324 323 319 312 305 305 304 300 299 297 292 289 286 283 281 278 275 271 268 267 267 260 254 256 260 257 252 261 264 253 249 252 238 235 245 234 224 225 226 230 231 227 229 236 237 236 239 245 248 244 239 238 238 237 239 240 240 242 242 242 242 242 242 243 243 243 244 245 246
332 331 336 340 336 332 328 327 333 334 330 329 329 327 325 325 326 328 328 322 313 309 306 302 298 293 289 288 287 285 286 282 275 273 272 271 267 261 257 255 256 257 253 257 261 253 252 261 244 236 251 244 226 225 230 230 228 225 225 230 233 233 237 243 247 246 242 242 241 240 241 241 241 242 242 243 243 242 242 243 243 244 245 246 247
328 330 332 330 326 325 325 327 333 335 332 331 328 325 324 325 325 324 324 323 320 316 312 308 301 293 290 289 288 289 291 288 280 276 278 278 270 261 260 262 260 260 259 260 262 257 256 261 251 246 255 247 228 227 235 235 232 230 228 229 233 234 234 239 244 242 240 242 245 245 244 244 243 242 242 243 243 243 243 243 244 245 247 248 249
326 329 326 323 323 325 328 330 334 335 333 329 326 324 324 323 322 321 320 319 319 319 317 313 306 297 294 295 296 296 293 290 283 277 277 278 275 266 263 265 264 262 265 265 263 261 262 260 252 248 248 246 246 248 243 235 230 231 230 226 228 231 233 239 242 239 238 240 244 246 247 248 246 244 243 243 244 244 244 244 244 245 247 249 251
324 326 326 326 325 324 328 332 333 333 330 328 325 323 322 322 321 320 320 318 317 317 315 313 308 305 303 300 298 294 290 289 287 283 279 276 276 274 269 267 262 259 264 267 264 264 268 267 261 255 247 249 259 261 250 237 228 231 235 229 225 226 229 236 240 241 241 241 241 243 246 249 250 248 246 245 245 245 245 245 245 245 246 249 251
325 326 327 326 324 324 327 331 332 329 327 326 324 322 322 322 320 318 318 317 314 314 317 316 314 315 314 309 304 298 292 292 294 291 283 277 276 277 274 271 266 261 262 266 266 268 273 273 270 267 259 255 258 261 260 251 237 235 244 238 225 218 218 224 234 241 243 242 241 242 242 243 246 247 247 248 248 248 247 247 246 246 247 248 250
326 327 327 326 327 327 327 326 326 324 322 319 318 320 323 325 322 315 312 313 313 316 322 324 321 321 321 319 316 308 296 292 297 295 286 278 278 277 274 272 274 272 267 265 267 268 270 271 268 267 265 262 263 262 260 258 248 242 246 241 226 219 221 225 228 234 239 241 243 245 243 240 242 243 243 245 246 247 248 247 247 247 248 250 251
324 325 325 326 327 327 325 323 322 321 320 320 323 325 325 323 319 312 309 310 312 317 321 322 322 321 320 320 320 315 305 298 297 295 290 285 281 277 274 273 277 279 273 270 271 267 264 263 263 265 264 263 264 261 255 257 255 247 246 243 234 230 231 232 228 228 235 241 242 245 246 246 247 245 241 241 241 243 245 247 247 247 248 250 252
322 322 322 323 324 325 325 323 324 323 322 326 329 325 319 317 314 311 312 312 312 315 317 318 318 318 316 316 316 315 313 308 301 294 291 291 287 280 276 273 273 275 272 268 267 264 260 258 258 260 260 257 256 255 256 260 258 251 248 247 243 240 239 242 238 231 235 240 241 244 248 249 249 244 240 240 240 239 241 244 247 247 247 248 249
320 320 320 320 322 324 325 324 323 322 323 328 326 318 315 316 314 311 311 311 312 313 314 314 314 313 312 313 313 311 309 308 305 299 293 290 289 286 281 273 270 271 269 265 262 260 257 255 257 261 262 256 251 250 253 257 256 250 246 246 248 246 242 243 243 239 241 246 247 248 250 251 249 244 241 242 242 241 240 240 243 246 247 246 246
318 318 318 319 321 322 323 324 323 323 325 326 322 318 318 317 315 315 314 313 314 314 312 313 313 311 311 311 311 309 304 303 304 302 298 292 287 283 279 273 268 268 267 265 263 260 256 258 262 263 261 256 251 250 252 254 255 251 246 247 251 251 247 245 244 241 242 248 252 253 255 255 254 251 248 245 245 246 245 245 245 245 244 244 244
315 315 316 319 321 321 322 322 322 324 325 323 319 319 319 317 316 317 317 317 318 318 316 316 314 312 311 310 309 306 303 304 303 296 292 291 288 281 275 271 268 267 267 266 263 260 259 261 262 261 260 260 258 255 255 256 256 250 245 246 251 252 249 245 243 241 240 243 251 255 257 257 257 255 252 251 250 249 248 249 250 248 243 242 243
315 316 317 319 320 321 322 322 323 325 325 320 317 315 312 313 312 312 314 316 317 319 320 318 316 313 309 306 305 303 303 306 304 295 288 288 290 286 279 273 269 268 268 267 265 262 262 263 263 260 261 263 263 261 259 258 254 249 246 246 249 248 245 243 245 246 243 243 249 254 255 256 256 253 251 251 251 249 248 249 252 251 246 242 242
320 319 319 320 320 320 322 321 321 324 323 318 315 312 309 309 309 310 313 315 316 319 321 320 317 315 310 306 304 303 304 304 302 298 295 291 286 283 282 277 268 263 264 265 265 264 264 265 265 263 261 262 264 263 262 260 257 254 252 248 245 244 244 247 251 252 249 247 249 252 254 254 253 251 250 250 250 249 250 254 256 254 249 246 245
323 322 321 321 320 320 321 320 318 319 320 317 316 314 310 309 311 313 317 320 319 320 322 321 318 316 312 308 305 304 304 301 300 300 297 292 287 287 287 282 272 266 264 265 265 264 264 264 265 265 264 264 265 264 262 263 260 254 249 244 242 245 249 253 256 255 254 251 250 251 253 253 253 252 252 252 253 253 254 256 257 254 251 249 248
325 324 324 322 321 322 321 319 319 320 320 319 317 315 313 311 313 316 319 322 320 318 316 316 315 313 309 306 305 303 299 297 301 302 298 294 295 295 294 290 282 275 272 272 272 267 264 264 265 267 267 266 268 267 265 264 259 252 247 243 242 248 254 255 255 254 253 252 252 253 254 254 254 253 253 253 253 254 255 255 254 254 253 252 251
328 327 326 324 323 324 323 323 324 321 320 322 323 322 319 317 319 321 321 321 319 315 311 308 307 306 304 305 307 306 301 298 302 306 302 299 300 297 293 291 288 284 282 283 283 280 277 273 269 267 266 267 269 270 269 268 263 258 255 251 249 253 256 253 249 249 247 246 249 252 255 256 254 252 253 253 252 253 255 255 254 253 252 253 254
331 330 329 327 326 327 329 335 338 331 324 325 328 331 330 328 328 328 327 325 321 318 315 312 309 306 305 308 313 313 309 305 306 308 305 301 301 297 292 289 288 289 291 288 286 286 285 280 274 271 269 266 264 266 269 270 267 263 262 261 258 255 254 249 245 246 247 247 248 249 253 257 255 250 252 253 252 254 255 256 256 256 254 253 253
338 336 335 333 333 335 337 343 350 348 341 337 336 337 337 336 336 335 332 330 324 320 318 315 313 309 308 312 316 316 315 314 310 309 306 302 298 293 289 290 290 292 295 294 292 292 286 278 276 276 274 269 263 260 260 263 265 264 263 261 256 251 249 248 247 250 253 253 251 248 250 254 254 250 252 255 257 258 260 260 259 259 258 256 255
343 341 342 343 343 344 345 348 351 350 347 344 340 337 336 335 335 333 330 328 324 321 318 315 312 309 306 310 314 314 317 319 314 310 309 304 299 293 286 287 290 292 295 297 297 297 291 282 278 277 277 276 270 264 259 258 257 255 254 255 254 251 250 249 250 253 254 253 249 247 249 253 254 252 254 259 262 262 262 264 264 262 260 259 257
346 344 345 347 347 346 346 348 346 341 340 339 336 331 328 328 329 328 326 323 320 318 317 316 314 310 306 307 309 309 310 312 308 306 304 301 302 303 296 290 290 291 292 294 296 298 295 290 286 283 281 280 276 271 267 264 259 253 251 252 252 250 250 250 250 250 250 250 248 248 251 255 256 255 255 257 260 260 260 262 265 266 264 262 260
Height
1547 1546 1547 1547 1547 1547 1546 1546 1547 1547 1548 1548 1548 1549 1549 1549 1550 1550 1550 1549 1549 1549 1549 1550 1550 1550 1550 1550 1550 1550 1550 1550 1551 1551 1552 1553 1553 1553 1552 1553 1553 1554 1554 1554 1554 1555 1556 1557 1557 1558 1558 1559 1559 1560 1560 1561 1561 1562 1563 1564 1565 1566 1567 1568 1569 1570 1571 1572 1573 1574 1575 1576 1577 1578 1579 1580 1581 1582 1583 1584 1584 1585 1586 1587 1588
1545 1545 1545 1545 1545 1545 1544 1545 1545 1546 1546 1545 1545 1546 1547 1548 1549 1549 1549 1548 1548 1547 1547 1548 1549 1549 1549 1549 1549 1549 1548 1548 1549 1550 1551 1551 1551 1551 1551 1551 1552 1552 1552 1553 1553 1554 1554 1555 1556 1556 1557 1557 1558 1558 1559 1560 1560 1561 1562 1562 1564 1565 1566 1567 1568 1569 1570 1570 1572 1573 1574 1575 1576 1577 1578 1579 1580 1581 1582 1582 1583 1584 1585 1585 1586
1543 1544 1544 1544 1543 1543 1543 1543 1543 1544 1544 1543 1543 1543 1544 1546 1547 1548 1548 1547 1547 1547 1546 1546 1547 1548 1548 1548 1549 1549 1548 1548 1548 1549 1549 1549 1549 1549 1549 1550 1550 1551 1551 1551 1552 1552 1553 1554 1555 1555 1556 1556 1557 1557 1558 1559 1559 1560 1561 1561 1562 1564 1564 1565 1566 1567 1568 1569 1570 1571 1573 1574 1575 1576 1577 1578 1579 1579 1580 1581 1582 1583 1584 1584 1585
1541 1542 1542 1542 1541 1541 1541 1541 1541 1542 1543 1542 1542 1542 1543 1544 1545 1546 1546 1545 1545 1545 1545 1545 1545 1546 1546 1547 1547 1548 1548 1548 1547 1548 1548 1548 1547 1548 1548 1548 1548 1549 1549 1550 1550 1551 1551 1552 1553 1554 1554 1555 1555 1556 1557 1558 1558 1559 1560 1560 1561 1562 1563 1564 1565 1566 1567 1568 1569 1570 1571 1573 1574 1575 1576 1576 1577 1578 1579 1580 1581 1581 1582 1583 1584
1539 1539 1540 1540 1539 1539 1539 1540 1540 1541 1541 1541 1541 1541 1542 1543 1543 1543 1544 1544 1544 1544 1544 1544 1544 1544 1544 1545 1546 1547 1547 1547 1546 1547 1547 1547 1546 1546 1547 1547 1547 1547 1548 1548 1549 1549 1550 1551 1552 1552 1553 1553 1554 1555 1555 1556 1557 1558 1559 1559 1560 1561 1562 1563 1564 1565 1566 1567 1568 1569 1570 1571 1572 1573 1574 1575 1576 1577 1578 1579 1579 1580 1581 1582 1583
1537 1537 1537 1537 1538 1538 1538 1538 1539 1539 1538 1539 1540 1539 1540 1540 1541 1541 1542 1542 1542 1542 1543 1542 1542 1542 1543 1543 1544 1545 1545 1545 1545 1545 1546 1546 1546 1545 1545 1545 1546 1546 1546 1547 1547 1548 1548 1549 1550 1551 1552 1552 1553 1553 1554 1555 1555 1556 1557 1558 1559 1560 1561 1562 1563 1564 1565 1566 1567 1568 1569 1570 1571 1572 1573 1574 1575 1576 1577 1577 1578 1579 1580 1581 1581
1535 1535 1535 1535 1536 1536 1536 1536 1537 1537 1537 1538 1538 1537 1538 1538 1538 1539 1540 1540 1540 1540 1541 1541 1541 1541 1541 1541 1542 1542 1543 1543 1544 1544 1544 1545 1545 1545 1544 1544 1544 1545 1545 1545 1546 1546 1547 1548 1548 1549 1550 1551 1552 1552 1553 1554 1554 1555 1556 1557 1558 1559 1560 1561 1561 1562 1563 1564 1565 1566 1568 1569 1570 1571 1572 1573 1574 1575 1575 1576 1577 1578 1579 1579 1580
1533 1533 1533 1533 1534 1534 1534 1535 1535 1535 1535 1536 1535 1535 1536 1535 1536 1537 1538 1538 1537 1537 1538 1539 1539 1539 1539 1539 1540 1540 1541 1541 1542 1542 1543 1543 1544 1544 1543 1542 1543 1543 1544 1544 1545 1545 1546 1546 1547 1548 1549 1549 1550 1551 1552 1552 1553 1554 1555 1556 1556 1557 1558 1559 1560 1561 1562 1563 1564 1565 1566 1568 1569 1570 1571 1572 1573 1574 1574 1575 1576 1577 1578 1578 1579
1532 1532 1532 1532 1532 1532 1533 1533 1533 1533 1533 1533 1533 1533 1533 1533 1534 1534 1534 1535 1534 1534 1536 1538 1538 1537 1537 1537 1538 1538 1538 1539 1540 1540 1541 1541 1542 1543 1542 1542 1541 1542 1543 1543 1543 1544 1544 1545 1546 1547 1547 1548 1548 1549 1550 1551 1552 1553 1554 1554 1555 1556 1557 1558 1559 1560 1561 1561 1563 1564 1565 1566 1568 1569 1570 1571 1572 1572 1573 1573 1574 1575 1576 1577 1578
1531 1532 1531 1530 1530 1531 1531 1531 1531 1531 1531 1531 1531 1531 1531 1531 1532 1532 1532 1532 1532 1532 1534 1536 1536 1535 1535 1535 1535 1535 1536 1537 1537 1538 1539 1539 1540 1541 1542 1542 1541 1541 1541 1541 1542 1542 1543 1544 1544 1545 1546 1546 1547 1548 1549 1550 1550 1551 1552 1553 1554 1555 1556 1557 1558 1559 1559 1560 1561 1563 1564 1565 1567 1568 1569 1570 1571 1571 1572 1572 1573 1574 1575 1576 1577
1530 1530 1530 1529 1529 1530 1530 1529 1529 1529 1529 1529 1529 1529 1529 1530 1530 1530 1530 1530 1530 1530 1531 1533 1533 1533 1533 1533 1533 1533 1533 1534 1535 1536 1536 1537 1538 1539 1540 1541 1541 1540 1540 1540 1540 1541 1542 1542 1543 1543 1544 1545 1545 1546 1547 1548 1549 1550 1551 1552 1553 1554 1555 1556 1557 1558 1559 1559 1561 1562 1563 1564 1566 1567 1568 1569 1570 1570 1571 1571 1572 1573 1574 1575 1576
1527 1527 1527 1527 1528 1528 1528 1527 1528 1528 1528 1528 1527 1527 1527 1528 1528 1529 1528 1528 1528 1528 1529 1530 1531 1531 1531 1531 1531 1531 1531 1532 1533 1534 1534 1535 1536 1537 1538 1539 1540 1540 1539 1539 1539 1539 1540 1541 1541 1542 1543 1544 1544 1545 1545 1546 1547 1548 1549 1550 1551 1552 1553 1555 1556 1557 1558 1559 1560 1561 1562 1563 1564 1566 1567 1568 1568 1569 1570 1570 1571 1572 1573 1574 1575
1525 1525 1526 1525 1526 1526 1526 1526 1526 1526 1526 1526 1526 1526 1526 1526 1527 1527 1527 1527 1527 1527 1528 1529 1528 1528 1529 1529 1529 1529 1530 1530 1531 1531 1532 1532 1533 1535 1536 1537 1538 1539 1539 1539 1538 1538 1538 1539 1540 1541 1541 1542 1543 1544 1544 1545 1546 1546 1548 1549 1550 1551 1552 1553 1554 1555 1556 1557 1559 1560 1561 1562 1563 1564 1565 1566 1567 1568 1569 1570 1571 1571 1572 1573 1574
1524 1524 1525 1525 1525 1524 1525 1525 1525 1525 1524 1524 1524 1525 1525 1525 1525 1525 1525 1525 1525 1526 1527 1527 1527 1527 1527 1527 1527 1527 1528 1528 1529 1529 1530 1530 1531 1533 1534 1535 1536 1537 1538 1539 1538 1537 1537 1537 1538 1539 1540 1541 1541 1542 1543 1543 1544 1545 1546 1547 1548 1549 1550 1551 1553 1554 1555 1556 1557 1558 1559 1561 1562 1563 1564 1565 1566 1567 1568 1569 1570 1571 1572 1572 1573
1523 1524 1524 1524 1525 1524 1524 1525 1524 1523 1523 1523 1523 1524 1524 1524 1523 1523 1523 1524 1525 1525 1526 1525 1525 1526 1526 1526 1526 1526 1526 1526 1526 1527 1527 1529 1530 1531 1532 1533 1534 1535 1536 1537 1537 1537 1536 1536 1537 1538 1538 1539 1540 1540 1541 1542 1542 1543 1544 1545 1546 1547 1549 1550 1551 1552 1553 1555 1556 1557 1558 1559 1560 1561 1563 1564 1565 1566 1567 1568 1569 1570 1571 1571 1572
1522 1523 1523 1524 1525 1524 1524 1524 1523 1522 1522 1522 1522 1523 1523 1523 1522 1521 1521 1522 1524 1525 1525 1525 1525 1526 1525 1524 1525 1525 1524 1524 1524 1525 1526 1527 1528 1528 1530 1531 1532 1534 1534 1535 1536 1536 1536 1535 1535 1536 1537 1537 1538 1539 1540 1540 1541 1542 1543 1544 1545 1546 1547 1548 1550 1551 1552 1553 1554 1555 1557 1558 1559 1560 1561 1562 1563 1565 1566 1567 1568 1569 1569 1570 1571
1522 1522 1523 1523 1524 1525 1525 1523 1522 1521 1521 1521 1521 1521 1521 1521 1521 1521 1521 1521 1523 1525 1525 1525 1524 1525 1525 1524 1524 1524 1523 1523 1523 1523 1524 1525 1526 1526 1527 1529 1530 1531 1532 1533 1534 1534 1535 1534 1534 1534 1535 1536 1536 1537 1538 1539 1540 1541 1541 1542 1543 1545 1546 1547 1548 1549 1551 1552 1553 1554 1555 1556 1557 1559 1560 1561 1562 1563 1564 1565 1566 1567 1568 1569 1570
1522 1522 1523 1522 1524 1526 1525 1522 1521 1520 1520 1519 1519 1519 1519 1520 1520 1520 1520 1521 1522 1523 1524 1524 1523 1524 1525 1524 1524 1523 1522 1523 1523 1522 1522 1523 1524 1525 1525 1527 1528 1529 1529 1531 1531 1532 1533 1534 1533 1532 1532 1533 1534 1535 1536 1537 1538 1539 1540 1540 1542 1543 1544 1546 1547 1548 1549 1550 1552 1553 1554 1555 1556 1557 1558 1559 1561 1562 1563 1564 1565 1566 1567 1567 1568
1522 1522 1523 1522 1523 1525 1523 1520 1520 1519 1518 1518 1517 1518 1518 1518 1519 1519 1519 1520 1520 1520 1521 1521 1521 1523 1524 1523 1523 1523 1523 1523 1522 1521 1521 1522 1523 1524 1524 1525 1526 1526 1527 1528 1529 1530 1531 1532 1533 1532 1531 1532 1532 1533 1534 1535 1536 1537 1538 1539 1540 1541 1542 1544 1545 1547 1548 1549 1550 1551 1552 1554 1555 1556 1557 1558 1559 1560 1561 1562 1563 1564 1565 1566 1567
1522 1522 1522 1521 1522 1522 1520 1519 1519 1518 1517 1517 1516 1516 1517 1518 1518 1518 1518 1518 1518 1518 1518 1519 1519 1520 1521 1521 1522 1522 1522 1522 1521 1522 1521 1520 1520 1521 1522 1523 1523 1524 1525 1525 1526 1528 1529 1530 1531 1532 1531 1530 1531 1532 1533 1534 1534 1535 1536 1538 1538 1539 1541 1542 1543 1545 1546 1547 1549 1550 1551 1552 1553 1554 1556 1557 1558 1559 1560 1561 1562 1563 1564 1565 1566
1522 1521 1521 1521 1521 1520 1519 1518 1517 1517 1517 1516 1516 1516 1516 1517 1517 1517 1517 1517 1517 1517 1517 1517 1517 1517 1517 1518 1520 1520 1520 1520 1520 1521 1520 1519 1519 1519 1520 1521 1521 1522 1523 1524 1524 1525 1527 1528 1529 1530 1530 1529 1529 1530 1531 1532 1533 1533 1534 1536 1537 1538 1539 1540 1541 1542 1544 1545 1546 1548 1549 1550 1551 1553 1554 1555 1556 1557 1558 1559 1560 1561 1562 1563 1564
1523 1522 1522 1521 1520 1519 1518 1517 1516 1516 1516 1516 1515 1515 1516 1516 1516 1516 1516 1515 1515 1515 1515 1515 1515 1515 1515 1516 1518 1519 1519 1519 1519 1519 1519 1519 1518 1518 1518 1519 1520 1520 1520 1522 1522 1523 1524 1526 1526 1527 1529 1528 1527 1528 1529 1530 1531 1532 1532 1533 1535 1536 1537 1538 1539 1540 1541 1543 1544 1545 1547 1548 1549 1551 1552 1553 1554 1556 1557 1558 1559 1560 1561 1562 1563
1523 1522 1521 1521 1520 1519 1518 1517 1516 1516 1516 1515 1514 1514 1514 1514 1514 1514 1514 1514 1513 1513 1513 1513 1513 1514 1514 1515 1516 1516 1516 1517 1517 1518 1518 1517 1518 1517 1516 1517 1518 1518 1518 1519 1521 1521 1522 1524 1524 1525 1526 1527 1526 1526 1527 1528 1529 1530 1530 1531 1533 1534 1535 1536 1537 1538 1539 1540 1542 1543 1544 1546 1547 1548 1550 1551 1552 1554 1555 1556 1557 1558 1559 1560 1561
1522 1521 1521 1520 1519 1519 1518 1517 1517 1516 1516 1516 1515 1514 1514 1513 1513 1513 1513 1513 1512 1512 1512 1511 1511 1512 1512 1513 1513 1512 1512 1513 1514 1516 1515 1515 1516 1515 1515 1515 1516 1516 1517 1517 1518 1519 1520 1521 1522 1523 1524 1524 1525 1525 1525 1526 1527 1528 1529 1529 1530 1532 1533 1534 1535 1536 1537 1538 1540 1541 1542 1544 1545 1546 1548 1549 1550 1552 1553 1554 1555 1556 1557 1558 1559
1521 1521 1520 1519 1519 1518 1518 1517 1517 1516 1515 1515 1515 1515 1514 1513 1512 1512 1512 1512 1511 1510 1510 1510 1510 1510 1510 1511 1511 1510 1509 1510 1512 1514 1513 1513 1514 1513 1513 1514 1514 1514 1515 1515 1516 1517 1518 1518 1519 1521 1521 1522 1523 1524 1523 1524 1525 1526 1527 1528 1528 1529 1531 1532 1533 1534 1535 1536 1538 1539 1540 1541 1543 1544 1545 1547 1548 1549 1551 1552 1553 1554 1555 1557 1558
1521 1520 1519 1519 1519 1518 1517 1517 1516 1515 1514 1514 1514 1513 1512 1512 1511 1511 1511 1510 1509 1509 1509 1509 1508 1508 1509 1509 1509 1509 1508 1508 1509 1511 1512 1511 1512 1512 1512 1512 1512 1512 1513 1513 1514 1514 1515 1516 1517 1518 1519 1519 1520 1522 1522 1522 1523 1524 1525 1526 1526 1527 1529 1530 1531 1532 1533 1535 1536 1537 1538 1539 1541 1542 1543 1545 1546 1547 1548 1550 1551 1552 1553 1554 1555
1520 1520 1519 1518 1518 1517 1517 1516 1515 1514 1513 1513 1512 1511 1511 1510 1510 1510 1509 1509 1508 1507 1507 1507 1507 1507 1507 1507 1507 1507 1507 1507 1507 1508 1509 1510 1511 1511 1510 1510 1510 1509 1510 1511 1511 1512 1512 1514 1515 1515 1517 1517 1518 1519 1519 1520 1521 1522 1523 1524 1524 1525 1526 1528 1529 1530 1531 1532 1534 1535 1536 1537 1539 1540 1541 1542 1544 1545 1546 1547 1548 1550 1551 1552 1553
1520 1519 1518 1518 1517 1516 1516 1515 1514 1513 1512 1511 1511 1510 1510 1509 1509 1508 1508 1507 1506 1506 1505 1506 1506 1506 1506 1506 1505 1505 1506 1506 1507 1506 1507 1507 1508 1509 1508 1508 1508 1508 1508 1508 1508 1509 1510 1511 1512 1513 1514 1515 1515 1516 1517 1518 1519 1520 1521 1522 1522 1523 1524 1526 1527 1528 1529 1530 1532 1533 1534 1535 1536 1538 1539 1540 1541 1542 1543 1545 1546 1547 1548 1549 1550
1519 1518 1518 1517 1516 1515 1515 1514 1513 1512 1511 1510 1510 1509 1508 1508 1507 1507 1506 1506 1505 1505 1504 1504 1504 1505 1505 1504 1504 1503 1504 1505 1505 1505 1505 1506 1506 1506 1505 1505 1506 1507 1506 1506 1505 1506 1508 1509 1510 1511 1512 1513 1513 1515 1516 1516 1517 1518 1519 1520 1520 1520 1522 1524 1525 1526 1527 1528 1529 1530 1532 1533 1534 1535 1536 1537 1538 1540 1541 1542 1543 1544 1545 1546 1547
1519 1518 1517 1516 1515 1515 1514 1513 1512 1512 1511 1509 1508 1508 1507 1507 1506 1505 1505 1504 1504 1504 1503 1503 1503 1503 1503 1503 1503 1502 1502 1503 1504 1504 1504 1504 1504 1504 1503 1503 1504 1505 1505 1504 1503 1504 1505 1506 1507 1508 1509 1511 1511 1512 1514 1514 1515 1516 1516 1517 1518 1518 1519 1521 1522 1524 1525 1526 1527 1528 1529 1530 1531 1532 1533 1535 1536 1537 1538 1539 1540 1541 1542 1543 1544
1518 1517 1516 1515 1515 1514 1513 1512 1511 1511 1510 1509 1508 1507 1506 1505 1505 1504 1503 1503 1502 1502 1502 1501 1501 1501 1501 1501 1501 1500 1500 1501 1502 1502 1502 1502 1502 1502 1502 1502 1502 1502 1503 1503 1502 1502 1504 1504 1503 1505 1507 1508 1509 1510 1511 1512 1512 1513 1514 1515 1516 1517 1517 1519 1520 1521 1522 1524 1525 1526 1527 1528 1529 1530 1531 1532 1533 1534 1535 1536 1537 1538 1539 1540 1541
1518 1517 1516 1515 1514 1513 1512 1511 1510 1510 1509 1508 1507 1506 1505 1504 1503 1502 1502 1501 1501 1500 1500 1499 1499 1500 1499 1498 1498 1497 1498 1498 1499 1500 1500 1500 1500 1500 1499 1499 1499 1500 1501 1502 1500 1499 1502 1503 1503 1503 1504 1505 1506 1507 1508 1508 1508 1509 1510 1512 1514 1515 1515 1516 1517 1519 1520 1521 1522 1523 1524 1525 1526 1527 1528 1529 1530 1531 1532 1533 1534 1535 1536 1537 1538
1517 1516 1515 1515 1514 1513 1511 1510 1509 1509 1508 1507 1506 1505 1504 1503 1502 1501 1500 1500 1499 1498 1498 1498 1498 1498 1498 1497 1496 1496 1496 1497 1498 1498 1498 1497 1497 1496 1496 1497 1498 1499 1499 1499 1499 1498 1500 1502 1502 1502 1503 1504 1503 1504 1506 1505 1505 1506 1507 1509 1511 1512 1513 1513 1514 1516 1517 1519 1520 1521 1522 1522 1523 1524 1525 1526 1527 1528 1529 1530 1531 1532 1533 1534 1535
1517 1516 1515 1514 1513 1511 1510 1509 1508 1508 1507 1506 1506 1505 1504 1503 1502 1501 1500 1499 1498 1497 1497 1497 1497 1497 1496 1496 1496 1496 1496 1496 1496 1495 1495 1494 1494 1493 1494 1495 1496 1496 1496 1497 1497 1497 1498 1500 1501 1500 1501 1502 1503 1504 1504 1502 1502 1504 1506 1507 1507 1508 1509 1511 1511 1512 1514 1516 1517 1518 1519 1520 1521 1521 1522 1523 1524 1525 1526 1527 1528 1529 1530 1531 1532
1516 1515 1514 1513 1512 1510 1509 1509 1508 1507 1506 1505 1505 1504 1503 1502 1501 1500 1499 1498 1497 1497 1496 1496 1495 1495 1494 1494 1495 1494 1494 1493 1493 1493 1492 1491 1491 1490 1491 1492 1492 1493 1494 1495 1496 1496 1497 1498 1498 1498 1498 1499 1502 1503 1502 1499 1498 1501 1503 1503 1504 1505 1506 1507 1508 1509 1511 1513 1514 1516 1516 1517 1518 1519 1519 1520 1521 1522 1523 1524 1525 1526 1527 1528 1529
1515 1514 1513 1512 1510 1509 1508 1508 1507 1506 1506 1504 1503 1502 1502 1501 1500 1499 1498 1497 1497 1496 1495 1495 1494 1493 1493 1493 1493 1493 1492 1492 1491 1491 1490 1489 1489 1488 1488 1489 1489 1489 1491 1493 1495 1496 1496 1496 1497 1496 1496 1497 1498 1498 1498 1498 1498 1499 1501 1501 1502 1502 1503 1504 1506 1506 1508 1510 1511 1512 1513 1514 1515 1515 1516 1517 1518 1520 1520 1521 1522 1523 1524 1525 1525
1514 1512 1511 1510 1509 1508 1507 1506 1506 1505 1504 1503 1502 1501 1500 1499 1499 1498 1497 1496 1496 1495 1494 1494 1493 1492 1492 1492 1491 1490 1490 1489 1489 1488 1488 1487 1487 1487 1487 1487 1487 1488 1489 1491 1493 1495 1495 1495 1494 1494 1494 1494 1495 1494 1495 1495 1496 1497 1500 1500 1499 1499 1500 1502 1503 1504 1505 1507 1508 1509 1510 1511 1512 1512 1513 1514 1515 1516 1517 1518 1519 1520 1521 1522 1522
1513 1511 1510 1509 1508 1507 1506 1505 1504 1503 1502 1501 1500 1499 1498 1498 1497 1496 1495 1494 1494 1493 1493 1493 1492 1491 1491 1490 1489 1488 1487 1486 1486 1486 1486 1485 1485 1485 1485 1485 1485 1486 1487 1489 1491 1492 1492 1491 1490 1490 1491 1492 1494 1494 1493 1494 1495 1496 1498 1498 1497 1496 1497 1499 1501 1502 1502 1503 1505 1506 1507 1508 1509 1509 1510 1510 1511 1511 1512 1514 1515 1516 1517 1518 1519
1512 1510 1509 1508 1507 1506 1505 1504 1503 1502 1501 1500 1499 1498 1497 1496 1495 1494 1494 1493 1492 1491 1491 1491 1490 1490 1489 1488 1487 1486 1485 1484 1484 1484 1484 1483 1482 1482 1482 1482 1482 1482 1483 1485 1487 1488 1489 1488 1486 1486 1488 1490 1492 1492 1491 1493 1496 1496 1496 1496 1494 1495 1496 1498 1499 1500 1500 1501 1502 1503 1504 1505 1506 1506 1507 1508 1508 1508 1509 1510 1511 1512 1513 1514 1515
1511 1509 1508 1507 1505 1505 1504 1503 1502 1500 1499 1498 1497 1496 1495 1494 1494 1493 1492 1491 1490 1489 1489 1488 1488 1488 1487 1486 1485 1484 1483 1482 1482 1481 1481 1481 1480 1479 1479 1479 1479 1479 1480 1481 1483 1484 1485 1484 1483 1482 1484 1485 1486 1487 1488 1490 1493 1494 1493 1492 1491 1492 1494 1495 1496 1497 1498 1498 1499 1500 1501 1502 1503 1503 1504 1504 1504 1505 1505 1506 1507 1508 1508 1509 1510
1510 1508 1507 1506 1504 1503 1502 1501 1500 1499 1498 1497 1496 1494 1493 1492 1491 1491 1490 1489 1488 1487 1487 1486 1486 1485 1485 1484 1483 1482 1481 1480 1480 1479 1479 1478 1477 1476 1476 1476 1476 1476 1477 1478 1479 1480 1480 1480 1480 1479 1480 1480 1481 1482 1484 1485 1487 1488 1489 1489 1488 1488 1489 1490 1490 1491 1493 1495 1496 1496 1497 1498 1499 1500 1500 1500 1501 1501 1502 1502 1503 1503 1504 1505 1506
1508 1507 1506 1505 1503 1502 1501 1500 1499 1498 1497 1496 1494 1492 1492 1490 1489 1488 1488 1487 1486 1485 1484 1483 1483 1482 1482 1482 1481 1480 1479 1478 1478 1477 1476 1475 1475 1474 1474 1474 1474 1474 1474 1474 1475 1476 1476 1476 1476 1477 1476 1475 1476 1478 1479 1480 1482 1483 1484 1484 1484 1485 1485 1485 1485 1487 1489 1491 1492 1492 1493 1494 1496 1496 1496 1496 1497 1497 1498 1498 1498 1499 1499 1501 1502
1507 1506 1504 1503 1502 1501 1500 1498 1498 1497 1496 1494 1491 1490 1489 1488 1487 1486 1485 1484 1483 1483 1482 1481 1481 1480 1479 1479 1479 1478 1477 1476 1475 1474 1473 1473 1472 1471 1471 1471 1471 1471 1471 1471 1471 1471 1472 1472 1473 1473 1473 1472 1472 1473 1474 1475 1477 1478 1479 1480 1480 1481 1482 1482 1482 1483 1485 1487 1488 1488 1489 1490 1491 1492 1492 1492 1493 1494 1494 1494 1495 1495 1496 1497 1498
1506 1505 1503 1502 1501 1500 1499 1497 1496 1496 1494 1491 1490 1489 1487 1486 1485 1484 1484 1483 1482 1481 1480 1479 1479 1478 1477 1476 1476 1475 1475 1474 1473 1471 1470 1470 1470 1469 1469 1468 1468 1467 1467 1467 1467 1468 1468 1469 1469 1469 1470 1469 1470 1470 1471 1472 1472 1474 1475 1477 1477 1477 1479 1479 1479 1479 1481 1483 1484 1483 1484 1485 1486 1487 1487 1488 1489 1490 1490 1491 1492 1492 1492 1493 1494
1505 1503 1502 1501 1500 1499 1498 1496 1495 1494 1492 1489 1487 1487 1485 1484 1484 1483 1482 1481 1480 1479 1479 1477 1477 1476 1475 1475 1473 1473 1472 1471 1470 1469 1468 1468 1467 1466 1466 1466 1465 1464 1464 1464 1465 1465 1465 1465 1465 1465 1466 1467 1467 1468 1469 1469 1470 1471 1473 1475 1476 1475 1476 1477 1476 1476 1478 1480 1480 1480 1480 1481 1482 1482 1482 1483 1484 1485 1485 1486 1487 1488 1488 1489 1490
1503 1502 1501 1500 1499 1498 1496 1494 1493 1492 1489 1487 1486 1485 1484 1483 1482 1481 1480 1479 1479 1478 1477 1476 1475 1474 1474 1473 1471 1471 1470 1468 1467 1467 1466 1465 1465 1464 1464 1464 1463 1462 1461 1461 1461 1461 1462 1462 1462 1462 1464 1464 1464 1465 1466 1467 1468 1469 1470 1472 1474 1474 1474 1474 1474 1474 1475 1476 1477 1477 1476 1476 1478 1478 1477 1478 1479 1480 1480 1481 1482 1483 1484 1485 1486
1502 1501 1500 1499 1497 1496 1495 1493 1492 1490 1487 1486 1484 1483 1482 1481 1480 1479 1478 1477 1477 1476 1475 1475 1474 1473 1472 1471 1470 1469 1467 1466 1465 1465 1464 1463 1463 1462 1462 1462 1461 1460 1459 1459 1459 1459 1459 1459 1459 1459 1459 1460 1461 1462 1463 1464 1465 1466 1467 1468 1470 1472 1472 1471 1470 1471 1471 1472 1474 1474 1472 1472 1474 1474 1472 1474 1476 1475 1476 1477 1477 1478 1479 1480 1481
1501 1500 1499 1498 1496 1495 1494 1493 1491 1489 1486 1485 1483 1482 1481 1480 1479 1478 1477 1476 1475 1474 1474 1473 1472 1471 1470 1469 1468 1467 1466 1464 1464 1463 1463 1462 1461 1460 1460 1459 1459 1458 1458 1457 1457 1457 1457 1457 1456 1456 1456 1456 1457 1457 1459 1460 1462 1463 1464 1464 1466 1468 1469 1468 1466 1466 1467 1468 1470 1471 1468 1468 1470 1470 1469 1470 1472 1472 1472 1473 1473 1474 1475 1476 1477
1500 1499 1498 1497 1495 1494 1493 1492 1491 1488 1486 1484 1482 1481 1480 1479 1478 1476 1475 1474 1473 1472 1472 1472 1471 1470 1469 1468 1467 1465 1464 1463 1462 1461 1461 1460 1459 1458 1458 1457 1456 1456 1456 1455 1454 1455 1455 1454 1453 1454 1453 1453 1453 1454 1455 1457 1458 1460 1460 1459 1461 1463 1464 1463 1462 1462 1463 1464 1466 1467 1465 1464 1465 1466 1465 1466 1468 1468 1468 1468 1469 1470 1471 1471 1472
1500 1499 1498 1496 1495 1493 1492 1491 1490 1488 1486 1483 1481 1480 1479 1478 1477 1475 1474 1472 1471 1470 1470 1469 1469 1468 1467 1467 1466 1464 1462 1461 1460 1459 1459 1458 1457 1456 1456 1455 1455 1454 1454 1453 1453 1453 1452 1451 1451 1451 1450 1450 1450 1450 1451 1452 1454 1455 1455 1454 1456 1458 1459 1458 1458 1458 1459 1460 1461 1463 1462 1460 1461 1463 1463 1463 1463 1464 1464 1464 1465 1466 1466 1467 1467
1500 1499 1497 1496 1494 1493 1492 1491 1490 1488 1486 1482 1480 1479 1477 1476 1475 1474 1472 1470 1469 1468 1467 1466 1466 1465 1465 1464 1463 1462 1461 1459 1458 1457 1457 1456 1455 1455 1454 1453 1453 1452 1451 1451 1451 1450 1450 1449 1448 1448 1448 1448 1447 1447 1448 1449 1450 1450 1450 1451 1452 1454 1454 1454 1454 1455 1455 1454 1457 1459 1458 1457 1458 1459 1460 1460 1459 1458 1460 1461 1461 1462 1462 1462 1462